User: anonymous   Login
Location: Dodge City Community College Clyde Tombaugh Astronomy Center
(37.7756°N, 100.0412°W)
Time: 23:08:57
(UTC+00:00)
Language:

Cosmos 1939 Rocket - Orbit

View from above orbital plane
View from above orbital plane
View from above satellite
View from above satellite

Ground track
Ground track

The orbit data is extracted from the following two-line orbital elements,

1 19046U 88032B   22140.50667639  .00002471  00000-0  18243-3 0  9997
2 19046  97.3918 140.6959 0035839 337.4375  22.5274 15.03642761842419
Epoch (UTC): 20 May 2022 12:09:36
Eccentricity: 0.0035839
inclination: 97.3918°
perigee height: 531 km
apogee height: 580 km
right ascension of ascending node: 140.6959°
argument of perigee: 337.4375°
revolutions per day: 15.03642761
mean anomaly at epoch: 22.5274°
orbit number at epoch: 84241

The dashed part of the orbit path shows where the satellite is in the earth's shadow,  

DLR